Powrót do katalogu

ARIANE 2 DEB

LostGTO
NORAD 27036·DEBRIS·🇫🇷 France

Wystrzelony Jan 27, 1989 z Guiana Space Centre

Loading…

TLE

NieaktualneSource: Space-Track

Epoka: May 6, 2025, 14:12 UTC

1 27036U 89006R   25126.59177800 -.00000215  00000-0  97618-3 0  9997
2 27036   9.1887   5.3472 7148138 217.1432  12.5034  2.25737870 16841

Śledź ARIANE 2 DEB w czasie rzeczywistym z AllMySat

Download on the App Store